Time,TemperatureF,DewpointF,PressureIn,WindDirection,WindDirectionDegrees,WindSpeedMPH,WindSpeedGustMPH,Humidity,HourlyPrecipIn,Conditions,Clouds,dailyrainin,SolarRadiationWatts/m^2,SoftwareType,DateUTC
2013-02-01 00:00:00,31.0,20.0,-100.00,ENE,73,0.0,0.0,63,0.00,,,0.00,0.000000,,2013-02-01 07:00:00,
2013-02-01 00:22:00,31.0,20.0,-100.00,ENE,73,0.0,0.0,63,0.00,,,0.00,0.000000,,2013-02-01 07:22:00,
2013-02-01 00:32:00,31.0,20.0,-100.00,ENE,73,0.0,0.0,63,0.00,,,0.00,0.000000,,2013-02-01 07:32:00,
2013-02-01 00:42:00,31.0,20.0,-100.00,ENE,73,0.0,0.0,63,0.00,,,0.00,0.000000,,2013-02-01 07:42:00,
2013-02-01 00:52:00,31.0,20.0,-100.00,ENE,73,0.0,0.0,63,0.00,,,0.00,0.000000,,2013-02-01 07:52:00,
2013-02-01 01:00:00,30.0,19.0,-100.00,SSE,160,0.0,0.0,64,0.00,,,0.00,0.000000,,2013-02-01 08:00:00,
2013-02-01 01:32:00,30.0,19.0,-100.00,SSE,160,0.0,0.0,64,0.00,,,0.00,0.000000,,2013-02-01 08:32:00,
2013-02-01 01:42:00,30.0,19.0,-100.00,SSE,160,0.0,0.0,64,0.00,,,0.00,0.000000,,2013-02-01 08:42:00,
2013-02-01 01:52:00,30.0,19.0,-100.00,SSE,160,0.0,0.0,64,0.00,,,0.00,0.000000,,2013-02-01 08:52:00,
2013-02-01 02:00:00,30.0,20.0,-100.00,South,187,0.0,0.0,66,0.00,,,0.00,0.000000,,2013-02-01 09:00:00,
2013-02-01 02:32:00,30.0,20.0,-100.00,South,187,0.0,0.0,66,0.00,,,0.00,0.000000,,2013-02-01 09:32:00,
2013-02-01 02:42:00,30.0,20.0,-100.00,South,187,0.0,0.0,66,0.00,,,0.00,0.000000,,2013-02-01 09:42:00,
2013-02-01 02:52:00,30.0,20.0,-100.00,South,187,0.0,0.0,66,0.00,,,0.00,0.000000,,2013-02-01 09:52:00,
2013-02-01 03:00:00,30.0,18.0,-100.00,NE,52,0.0,0.0,61,-99.99,,,0.00,0.000000,,2013-02-01 10:00:00,
2013-02-01 03:21:00,30.0,18.0,-100.00,NE,52,0.0,0.0,61,-99.99,,,0.00,0.000000,,2013-02-01 10:21:00,
2013-02-01 03:32:00,30.0,18.0,-100.00,NE,52,0.0,0.0,61,-99.99,,,0.00,0.000000,,2013-02-01 10:32:00,
2013-02-01 03:43:00,30.0,18.0,-100.00,NE,52,0.0,0.0,61,-99.99,,,0.00,0.000000,,2013-02-01 10:43:00,
2013-02-01 03:53:00,30.0,18.0,-100.00,NE,52,0.0,0.0,61,-99.99,,,0.00,0.000000,,2013-02-01 10:53:00,
2013-02-01 04:00:00,31.0,18.0,-100.00,South,182,0.0,1.0,57,-99.99,,,0.00,0.000000,,2013-02-01 11:00:00,
2013-02-01 04:32:00,31.0,18.0,-100.00,South,182,0.0,1.0,57,-99.99,,,0.00,0.000000,,2013-02-01 11:32:00,
2013-02-01 04:42:00,31.0,18.0,-100.00,South,182,0.0,1.0,57,-99.99,,,0.00,0.000000,,2013-02-01 11:42:00,
2013-02-01 04:53:00,31.0,18.0,-100.00,South,182,0.0,1.0,57,-99.99,,,0.00,0.000000,,2013-02-01 11:53:00,
2013-02-01 05:00:00,30.0,19.0,-100.00,SSW,195,0.0,2.0,62,0.00,,,0.00,0.000000,,2013-02-01 12:00:00,
2013-02-01 05:23:00,30.0,19.0,-100.00,SSW,195,0.0,2.0,62,0.00,,,0.00,0.000000,,2013-02-01 12:23:00,
2013-02-01 05:32:00,30.0,19.0,-100.00,SSW,195,0.0,2.0,62,0.00,,,0.00,0.000000,,2013-02-01 12:32:00,
2013-02-01 05:42:00,30.0,19.0,-100.00,SSW,195,0.0,2.0,62,0.00,,,0.00,0.000000,,2013-02-01 12:42:00,
2013-02-01 05:52:00,30.0,19.0,-100.00,SSW,195,0.0,2.0,62,0.00,,,0.00,0.000000,,2013-02-01 12:52:00,
2013-02-01 06:00:00,29.0,19.0,-100.00,South,191,0.0,2.0,67,-99.99,,,0.00,0.000000,,2013-02-01 13:00:00,
2013-02-01 06:33:00,29.0,19.0,-100.00,South,191,0.0,2.0,67,-99.99,,,0.00,0.000000,,2013-02-01 13:33:00,
2013-02-01 06:42:00,29.0,19.0,-100.00,South,191,0.0,2.0,67,-99.99,,,0.00,0.000000,,2013-02-01 13:42:00,
2013-02-01 06:53:00,29.0,19.0,-100.00,South,191,0.0,2.0,67,-99.99,,,0.00,0.000000,,2013-02-01 13:53:00,
2013-02-01 07:00:00,29.0,19.0,-100.00,SSW,198,0.0,2.0,65,0.00,,,0.00,0.000000,,2013-02-01 14:00:00,
2013-02-01 07:32:00,29.0,19.0,-100.00,SSW,198,0.0,2.0,65,0.00,,,0.00,0.000000,,2013-02-01 14:32:00,
2013-02-01 07:42:00,29.0,19.0,-100.00,SSW,198,0.0,2.0,65,0.00,,,0.00,0.000000,,2013-02-01 14:42:00,
2013-02-01 07:52:00,29.0,19.0,-100.00,SSW,198,0.0,2.0,65,0.00,,,0.00,0.000000,,2013-02-01 14:52:00,
2013-02-01 08:00:00,30.0,16.0,-100.00,SSW,210,0.0,3.0,56,0.00,,,0.00,0.000000,,2013-02-01 15:00:00,
2013-02-01 08:33:00,30.0,16.0,-100.00,SSW,210,0.0,3.0,56,0.00,,,0.00,0.000000,,2013-02-01 15:33:00,
2013-02-01 08:42:00,30.0,16.0,-100.00,SSW,210,0.0,3.0,56,0.00,,,0.00,0.000000,,2013-02-01 15:42:00,
2013-02-01 08:52:00,30.0,16.0,-100.00,SSW,210,0.0,3.0,56,0.00,,,0.00,0.000000,,2013-02-01 15:52:00,
2013-02-01 09:00:00,33.0,21.0,-100.00,SSW,202,0.0,2.0,61,0.00,,,0.00,7.000000,,2013-02-01 16:00:00,
2013-02-01 09:33:00,33.0,21.0,-100.00,SSW,202,0.0,2.0,61,0.00,,,0.00,7.000000,,2013-02-01 16:33:00,
2013-02-01 09:43:00,33.0,21.0,-100.00,SSW,202,0.0,2.0,61,0.00,,,0.00,7.000000,,2013-02-01 16:43:00,
2013-02-01 09:52:00,33.0,21.0,-100.00,SSW,202,0.0,2.0,61,0.00,,,0.00,7.000000,,2013-02-01 16:52:00,
2013-02-01 10:00:00,43.0,22.0,-100.00,SSW,207,0.0,3.0,42,0.00,,,0.00,27.000000,,2013-02-01 17:00:00,
2013-02-01 10:32:00,43.0,22.0,-100.00,SSW,207,0.0,3.0,42,0.00,,,0.00,27.000000,,2013-02-01 17:32:00,
2013-02-01 10:42:00,43.0,22.0,-100.00,SSW,207,0.0,3.0,42,0.00,,,0.00,27.000000,,2013-02-01 17:42:00,
2013-02-01 10:53:00,43.0,22.0,-100.00,SSW,207,0.0,3.0,42,0.00,,,0.00,27.000000,,2013-02-01 17:53:00,
2013-02-01 11:00:00,48.0,14.0,-100.00,West,272,2.0,6.0,25,0.00,,,0.00,357.000000,,2013-02-01 18:00:00,
2013-02-01 11:23:00,48.0,14.0,-100.00,West,272,2.0,6.0,25,0.00,,,0.00,357.000000,,2013-02-01 18:23:00,
2013-02-01 11:32:00,48.0,14.0,-100.00,West,272,2.0,6.0,25,0.00,,,0.00,357.000000,,2013-02-01 18:32:00,
2013-02-01 11:42:00,48.0,14.0,-100.00,West,272,2.0,6.0,25,0.00,,,0.00,357.000000,,2013-02-01 18:42:00,
2013-02-01 11:53:00,48.0,14.0,-100.00,West,272,2.0,6.0,25,0.00,,,0.00,357.000000,,2013-02-01 18:53:00,
2013-02-01 12:00:00,47.0,19.0,-100.00,WSW,256,2.0,6.0,33,0.00,,,0.00,605.000000,,2013-02-01 19:00:00,
2013-02-01 12:32:00,47.0,19.0,-100.00,WSW,256,2.0,6.0,33,0.00,,,0.00,605.000000,,2013-02-01 19:32:00,
2013-02-01 12:42:00,47.0,19.0,-100.00,WSW,256,2.0,6.0,33,0.00,,,0.00,605.000000,,2013-02-01 19:42:00,
2013-02-01 12:52:00,47.0,19.0,-100.00,WSW,256,2.0,6.0,33,0.00,,,0.00,605.000000,,2013-02-01 19:52:00,
2013-02-01 13:00:00,48.0,21.0,-100.00,SW,229,1.0,5.0,34,0.00,,,0.00,716.000000,,2013-02-01 20:00:00,
2013-02-01 13:22:00,48.0,21.0,-100.00,SW,229,1.0,5.0,34,0.00,,,0.00,716.000000,,2013-02-01 20:22:00,
2013-02-01 13:32:00,48.0,21.0,-100.00,SW,229,1.0,5.0,34,0.00,,,0.00,716.000000,,2013-02-01 20:32:00,
2013-02-01 13:42:00,48.0,21.0,-100.00,SW,229,1.0,5.0,34,0.00,,,0.00,716.000000,,2013-02-01 20:42:00,
2013-02-01 13:52:00,48.0,21.0,-100.00,SW,229,1.0,5.0,34,0.00,,,0.00,716.000000,,2013-02-01 20:52:00,
2013-02-01 14:00:00,50.0,22.0,-100.00,SW,231,4.0,9.0,33,0.00,,,0.00,762.000000,,2013-02-01 21:00:00,
2013-02-01 14:32:00,50.0,22.0,-100.00,SW,231,4.0,9.0,33,0.00,,,0.00,762.000000,,2013-02-01 21:32:00,
2013-02-01 14:42:00,50.0,22.0,-100.00,SW,231,4.0,9.0,33,0.00,,,0.00,762.000000,,2013-02-01 21:42:00,
2013-02-01 14:52:00,50.0,22.0,-100.00,SW,231,4.0,9.0,33,0.00,,,0.00,762.000000,,2013-02-01 21:52:00,
2013-02-01 15:00:00,52.0,22.0,-100.00,SW,220,2.0,8.0,31,0.00,,,0.00,737.000000,,2013-02-01 22:00:00,
2013-02-01 15:32:00,52.0,22.0,-100.00,SW,220,2.0,8.0,31,0.00,,,0.00,737.000000,,2013-02-01 22:32:00,
2013-02-01 15:42:00,52.0,22.0,-100.00,SW,220,2.0,8.0,31,0.00,,,0.00,737.000000,,2013-02-01 22:42:00,
2013-02-01 15:52:00,52.0,22.0,-100.00,SW,220,2.0,8.0,31,0.00,,,0.00,737.000000,,2013-02-01 22:52:00,
2013-02-01 16:00:00,50.0,21.0,-100.00,West,265,2.0,7.0,31,0.00,,,-99.99,644.000000,,2013-02-01 23:00:00,
2013-02-01 16:32:00,50.0,21.0,-100.00,West,265,2.0,7.0,31,0.00,,,-99.99,644.000000,,2013-02-01 23:32:00,
2013-02-01 16:42:00,50.0,21.0,-100.00,West,265,2.0,7.0,31,0.00,,,-99.99,644.000000,,2013-02-01 23:42:00,
2013-02-01 16:52:00,50.0,21.0,-100.00,West,265,2.0,7.0,31,0.00,,,-99.99,644.000000,,2013-02-01 23:52:00,
2013-02-01 17:00:00,50.0,21.0,-100.00,NW,312,2.0,9.0,32,0.00,,,0.00,487.000000,,2013-02-02 00:00:00,
2013-02-01 17:32:00,50.0,21.0,-100.00,NW,312,2.0,9.0,32,0.00,,,0.00,487.000000,,2013-02-02 00:32:00,
2013-02-01 17:42:00,50.0,21.0,-100.00,NW,312,2.0,9.0,32,0.00,,,0.00,487.000000,,2013-02-02 00:42:00,
2013-02-01 17:52:00,50.0,21.0,-100.00,NW,312,2.0,9.0,32,0.00,,,0.00,487.000000,,2013-02-02 00:52:00,
2013-02-01 18:00:00,42.0,19.0,-100.00,NNE,15,0.0,6.0,40,0.00,,,0.00,289.000000,,2013-02-02 01:00:00,
2013-02-01 18:32:00,42.0,19.0,-100.00,NNE,15,0.0,6.0,40,0.00,,,0.00,289.000000,,2013-02-02 01:32:00,
2013-02-01 18:42:00,42.0,19.0,-100.00,NNE,15,0.0,6.0,40,0.00,,,0.00,289.000000,,2013-02-02 01:42:00,
2013-02-01 18:52:00,42.0,19.0,-100.00,NNE,15,0.0,6.0,40,0.00,,,0.00,289.000000,,2013-02-02 01:52:00,
2013-02-01 19:00:00,35.0,19.0,-100.00,NNE,12,2.0,4.0,51,0.00,,,0.00,70.000000,,2013-02-02 02:00:00,
2013-02-01 19:32:00,35.0,19.0,-100.00,NNE,12,2.0,4.0,51,0.00,,,0.00,70.000000,,2013-02-02 02:32:00,
2013-02-01 19:42:00,35.0,19.0,-100.00,NNE,12,2.0,4.0,51,0.00,,,0.00,70.000000,,2013-02-02 02:42:00,
2013-02-01 19:52:00,35.0,19.0,-100.00,NNE,12,2.0,4.0,51,0.00,,,0.00,70.000000,,2013-02-02 02:52:00,
2013-02-01 20:00:00,35.0,17.0,-100.00,North,358,2.0,5.0,47,0.00,,,0.00,0.000000,,2013-02-02 03:00:00,
2013-02-01 20:22:00,35.0,17.0,-100.00,North,358,2.0,5.0,47,0.00,,,0.00,0.000000,,2013-02-02 03:22:00,
2013-02-01 20:32:00,35.0,17.0,-100.00,North,358,2.0,5.0,47,0.00,,,0.00,0.000000,,2013-02-02 03:32:00,
2013-02-01 20:42:00,35.0,17.0,-100.00,North,358,2.0,5.0,47,0.00,,,0.00,0.000000,,2013-02-02 03:42:00,
2013-02-01 20:52:00,35.0,17.0,-100.00,North,358,2.0,5.0,47,0.00,,,0.00,0.000000,,2013-02-02 03:52:00,
2013-02-01 21:00:00,35.0,18.0,-100.00,NE,40,0.0,4.0,49,0.00,,,0.00,0.000000,,2013-02-02 04:00:00,
2013-02-01 21:32:00,35.0,18.0,-100.00,NE,40,0.0,4.0,49,0.00,,,0.00,0.000000,,2013-02-02 04:32:00,
2013-02-01 21:42:00,35.0,18.0,-100.00,NE,40,0.0,4.0,49,0.00,,,0.00,0.000000,,2013-02-02 04:42:00,
2013-02-01 21:52:00,35.0,18.0,-100.00,NE,40,0.0,4.0,49,0.00,,,0.00,0.000000,,2013-02-02 04:52:00,
2013-02-01 22:00:00,32.0,16.0,-100.00,NNE,26,1.0,3.0,51,0.00,,,0.00,0.000000,,2013-02-02 05:00:00,
2013-02-01 22:33:00,32.0,16.0,-100.00,NNE,26,1.0,3.0,51,0.00,,,0.00,0.000000,,2013-02-02 05:33:00,
2013-02-01 22:42:00,32.0,16.0,-100.00,NNE,26,1.0,3.0,51,0.00,,,0.00,0.000000,,2013-02-02 05:42:00,
2013-02-01 22:52:00,32.0,16.0,-100.00,NNE,26,1.0,3.0,51,0.00,,,0.00,0.000000,,2013-02-02 05:52:00,
2013-02-01 23:00:00,33.0,19.0,-100.00,NE,52,2.0,4.0,55,0.00,,,0.00,0.000000,,2013-02-02 06:00:00,
2013-02-01 23:22:00,33.0,19.0,-100.00,NE,52,2.0,4.0,55,0.00,,,0.00,0.000000,,2013-02-02 06:22:00,
2013-02-01 23:32:00,33.0,19.0,-100.00,NE,52,2.0,4.0,55,0.00,,,0.00,0.000000,,2013-02-02 06:32:00,
2013-02-01 23:42:00,33.0,19.0,-100.00,NE,52,2.0,4.0,55,0.00,,,0.00,0.000000,,2013-02-02 06:42:00,
2013-02-01 23:52:00,33.0,19.0,-100.00,NE,52,2.0,4.0,55,0.00,,,0.00,0.000000,,2013-02-02 06:52:00,